轨道通信卫星FM28星 (ORBCOMM FM28)

导读

ORBCOMM FM 28是ORBCOMM低轨卫星移动通信系统的组成卫星,于1998年9月23日发射,归属ORB(轨道通信公司主导的国际项目)。该系统是全球首个低轨物联网卫星星座,主打机器对机器(M2M)通信服务,支持全球范围内低成本短数据传输,可用于远程资产监测、物流跟踪、应急通信等场景。卫星运行在近地轨道,具备低时延、信号覆盖广的优势,为全球物联网连接提供基础设施支持。

基本信息
目录编号:
25482
目录名称:
ORBCOMM FM 28
国际标识:
1998-053H
轨道中心:
EARTH
卫星名称:
轨道通信卫星FM28星
卫星全名:
轨道通信卫星FM28星 (ORBCOMM FM28)
卫星状态:
在轨 (已飞行10169 天)
发射日期:
1998-09-23 UTC
国别 :
(ORB)
星等 :
--
轨道信息
数据来源 国际轨道数据 AOE轨道数据
星历时间 2026-07-27T22:11:31+0800
8小时前
查看轨道信息
2026-07-26T01:00:00+0800
2天前
查看轨道信息
半长轴 7139.079km 7139.094km
偏心率 0.000353 0.0003436
轨道倾角 45.005° 45.004°
近地点辐角 166.387° 157.663°
升交点赤经 80.556° 89.503°
平近点角 193.708° 156.492°
近地点 758.421km 758.504km
远地点 763.463km 763.41km
周期 100.051分钟 100.052分钟
每日圈数 14.392608 14.392565
详细信息
固有亮度:
8
最大亮度:
6.9
平衡模式:
三轴稳定
覆盖范围:
全球
运营商:
轨道通信公司
运营商所在国:
美国
制造商(研发单位):
轨道ATK公司
制造商所在国:
美国
使用方式:
暂无
卫星简介
轨道通信FM(Orbcomm FM)是一系列低地球轨道通信卫星,由美国卫星通信公司 Orbcomm运营。 截至2015年12月,已有63颗此类卫星绕地球运行。该卫星已退役。
2D轨道图
3D轨道图
轨道高度分析图
轨道倾角分析图
轨道综合分析图
查看轨道综合分析图